Location: Saint-Usage
(47.1052°N, 5.2587°E)
Time: 09:33:11
(UTC+01:00)

NOAA 19 - Pass Details

Date: 05 December 2021
Orbit: 841 x 860 km, 99.2° (Epoch: 26 January)

Event Time Altitude Azimuth Distance (km) Brightness Sun altitude
Rises 19:21:32 0° 168° (SSE) 3,383 8.3 -24.9°
Reaches altitude 10° 19:23:53 10° 170° (S) 2,453 7.6 -25.3°
Maximum altitude 19:29:19 75° 256° (WSW) 876 5.3 -26.2°
Drops below altitude 10° 19:34:49 10° 342° (NNW) 2,479 7.8 -27.1°
Sets 19:37:13 0° 344° (NNW) 3,421 8.5 -27.5°
